Home   Weather   Haywards Heath   Past weeks

Flag for United Kingdom Past Weather in Haywards Heath, England, United Kingdom — Yesterday and Last 2 Weeks

Now
32 °F

Clear.


Feels Like: 29 °F
Forecast: N/A
Wind: 3 mph from North

Location: London / Gatwick Airport

Current Time: Jan 21, 2017 at 5:29:49 pm

Latest Report: Jan 21, 2017 at 4:50 pm


Visibility: 10 mi

Pressure: 30.27 "Hg

Humidity: 75%

Dew Point: 25 °F

Location of Haywards HeathLocation

Past Weather in Haywards Heath — Graph

°F

Haywards Heath Temperature Yesterday

Maximum temperature yesterday: 43 °F (at 12:50 pm)
Minimum temperature yesterday: 23 °F (at 3:50 am)
Average temperature yesterday: 32 °F

High & Low Weather Summary for the Past Weeks

 TemperatureHumidityPressure
High52 °F (Jan 7, 12:20 pm)100% (Jan 6, 6:20 pm)30.69 "Hg (Jan 6, 6:20 pm)
Low21 °F (Jan 18, 5:50 am)49% (Jan 17, 2:20 pm)29.27 "Hg (Jan 12, 5:50 pm)
Average39 °F88%30.24 "Hg
* Reported Jan 6 4:20 pm — Jan 21 4:20 pm, Haywards Heath, Weather by CustomWeather, © 2017

Note: Actual official high and low records may vary slightly from our data, if they occured in-between our weather recording intervals... More about our weather records

Advertising

Haywards Heath Weather History for the Previous 24 Hours

Scroll right to see more
 ConditionsComfort  
Time TempWeatherWind HumidityBarometerVisibility
4:20 pm
Sat, Jan 21
34 °FSunny.3 mph70%30.27 "Hg10 mi
3:50 pm36 °FSunny.6 mph65%30.27 "Hg10 mi
3:20 pm37 °FSunny.7 mph60%30.27 "Hg10 mi
2:50 pm37 °FSunny.7 mph56%30.27 "Hg10 mi
2:20 pm37 °FSunny.7 mph56%30.27 "Hg10 mi
1:50 pm37 °FSunny.7 mph60%30.30 "Hg10 mi
1:20 pm37 °FSunny.7 mph56%30.30 "Hg10 mi
12:50 pm37 °FPassing clouds.8 mph56%30.30 "HgN/A
12:20 pm37 °FSunny.8 mph60%30.33 "Hg10 mi
11:50 am36 °FSunny.8 mph65%30.33 "Hg10 mi
11:20 am36 °FSunny.8 mph70%30.33 "Hg10 mi
10:50 am34 °FSunny.6 mph70%30.33 "Hg10 mi
10:20 am32 °FSunny.6 mph75%30.36 "Hg10 mi
9:50 am30 °FSunny.5 mph80%30.36 "Hg10 mi
9:20 am28 °FSunny.5 mph80%30.36 "Hg10 mi
8:50 am25 °FSunny.6 mph86%30.36 "Hg10 mi
8:20 am25 °FSunny.3 mph86%30.36 "Hg10 mi
7:50 am25 °FClear.3 mph86%30.36 "Hg10 mi
7:20 am25 °FClear.5 mph86%30.36 "Hg10 mi
6:50 am23 °FClear.3 mph93%30.36 "Hg10 mi
6:20 am23 °FClear.7 mph93%30.36 "Hg10 mi
5:50 am21 °FClear.6 mph93%30.36 "Hg10 mi
5:20 am21 °FClear.3 mph100%30.36 "Hg10 mi
4:50 am21 °FClear.No wind100%30.39 "Hg10 mi
4:20 am21 °FClear.No wind93%30.39 "Hg6 mi
3:50 am21 °FClear.3 mph100%30.39 "Hg10 mi
3:20 am23 °FClear.No wind93%30.39 "Hg10 mi
2:50 am23 °FClear.2 mph93%30.39 "Hg10 mi
2:20 am25 °FClear.No wind93%30.42 "Hg10 mi
1:50 am25 °FClear.No wind86%30.42 "Hg10 mi
1:20 am25 °FClear.6 mph93%30.42 "Hg10 mi
12:50 am27 °FClear.5 mph86%30.42 "Hg10 mi
12:20 am27 °FClear.5 mph86%30.42 "Hg10 mi
11:50 pm
Fri, Jan 20
27 °FClear.6 mph86%30.42 "Hg10 mi
11:20 pm27 °FClear.3 mph93%30.42 "Hg10 mi
10:50 pm27 °FClear.3 mph86%30.42 "Hg10 mi
10:20 pm28 °FClear.3 mph80%30.42 "Hg10 mi
9:50 pm28 °FClear.3 mph86%30.42 "Hg10 mi
9:20 pm32 °FClear.3 mph75%30.42 "Hg10 mi
8:50 pm32 °FClear.5 mph75%30.42 "Hg10 mi
7:50 pm32 °FClear.5 mph75%30.45 "Hg10 mi
7:20 pm32 °FClear.5 mph75%30.42 "Hg10 mi
6:50 pm34 °FClear.6 mph70%30.42 "Hg10 mi
6:20 pm36 °FClear.5 mph70%30.42 "Hg10 mi
5:50 pm37 °FClear.8 mph65%30.42 "Hg10 mi
5:20 pm37 °FClear.8 mph60%30.45 "Hg10 mi
Weather by CustomWeather, © 2017

See weather overviewHow to use our weather pages